This demonstration page uses our WeatherBlox Daily Observations layout. Learn more.

Left ArrowRight Arrow

30.21309, -93.2044

Hourly Observations for May 22, 2015

Temp ( °F °C ) Dew Point ( °F °C ) Humidity (%) Winds ( mph kmh ) Pressure ( in mb ) Visibility ( mi km ) Precip ( " mm )
12:15 am 00:15 Cloudy 66 19 64 17.6 92 92 NNE 12 19 30.12 1020 10 16 0.00 0.00
12:35 am 00:35 Cloudy 65 18.2 63 17 93 93 NNE 9 15 30.12 1020 10 16 0.00 0.00
12:55 am 00:55 Cloudy 64 18 62 16.6 92 92 NNE 9 15 30.12 1020 10 16 0.00 0.00
1:15 am 01:15 Cloudy 64 17.7 61 16 90 90 NE 8 13 30.12 1020 10 16 0.00 0.00
1:35 am 01:35 Cloudy 64 17.6 61 15.9 90 90 NE 10 17 30.12 1020 10 16 0.00 0.00
1:55 am 01:55 Cloudy 64 17.5 61 16 91 91 NE 9 15 30.09 1019 10 16 0.00 0.00
2:15 am 02:15 Cloudy 63 17.3 60 15.7 90 90 NE 8 13 30.12 1020 10 16 0.00 0.00
2:35 am 02:35 Cloudy 63 17.1 60 15.6 91 91 NE 12 19 30.12 1020 10 16 0.00 0.00
2:55 am 02:55 Cloudy 63 17.1 60 15.5 90 90 ENE 9 15 30.12 1020 10 16 0.00 0.00
3:15 am 03:15 Cloudy 63 17 60 15.3 90 90 NE 8 13 30.12 1020 10 16 0.00 0.00
3:35 am 03:35 Cloudy 63 17 60 15.5 91 91 N 8 13 30.12 1020 10 16 0.00 0.00
3:55 am 03:55 Cloudy 62 16.8 60 15.5 92 92 NNE 9 15 30.12 1020 10 16 0.00 0.00
4:15 am 04:15 Cloudy 62 16.7 59 15.2 91 91 NNE 12 19 30.12 1020 10 16 0.00 0.00
4:35 am 04:35 Cloudy 62 16.5 59 14.9 90 90 NNE 9 15 30.12 1020 10 16 0.00 0.00
4:55 am 04:55 Cloudy 62 16.4 58 14.6 89 89 NNE 8 13 30.12 1020 10 16 0.00 0.00
5:15 am 05:15 Cloudy 61 16.3 58 14.6 90 90 NNE 9 15 30.15 1021 10 16 0.00 0.00
6:00 am 06:00 Mostly Cloudy 61 16 57 14 88 88 NNE 12 19 30.15 1021 10 16 0.00 0.00
6:55 am 06:55 Cloudy 61 16 57 14 88 88 ENE 8 13 30.15 1021 10 16 0.00 0.00
7:50 am 07:50 Cloudy 63 17 57 14 83 83 ENE 12 19 30.15 1021 7 11 0.00 0.00
8:45 am 08:45 Cloudy 63 17 57 14 83 83 NNE 12 19 30.15 1021 7 11 0.00 0.00
9:50 am 09:50 Mostly Cloudy 64 18 59 15 83 83 NE 8 13 30.18 1022 10 16 0.00 0.00
10:50 am 10:50 Mostly Cloudy 70 21 61 16 73 73 NE 6 9 30.18 1022 10 16 0.00 0.00
11:50 am 11:50 Mostly Cloudy 72 22 63 17 73 73 ENE 8 13 30.18 1022 10 16 0.00 0.00
12:50 pm 12:50 Mostly Cloudy 73 23 64 18 74 74 ENE 7 11 30.18 1022 10 16 0.00 0.00
9:50 pm 21:50 Mostly Clear 72 22 70 21 94 94 ENE 5 7 30.15 1021 10 16 0.00 0.00
10:15 pm 22:15 Clear 71 21.8 68 20.2 91 91 ENE 5 7 30.15 1021 10 16 0.00 0.00
10:35 pm 22:35 Clear 71 21.6 68 20.2 92 92 NE 6 9 30.15 1021 10 16 0.00 0.00
10:55 pm 22:55 Clear 71 21.5 68 20.1 92 92 NE 5 7 30.15 1021 10 16 0.00 0.00
11:15 pm 23:15 Clear 70 21.2 68 20 93 93 NE 7 11 30.15 1021 10 16 0.00 0.00
11:35 pm 23:35 Clear 70 21 67 19.6 92 92 ENE 6 9 30.15 1021 10 16 0.00 0.00
11:55 pm 23:55 Clear 69 20.8 67 19.6 93 93 ENE 6 9 30.15 1021 10 16 0.00 0.00

Powered by AerisWeather